ISS (PRICHAL) (49499 NORAD) Tracking and Keplerian Element Data

This shows tracking and keplerian element data for the satellite.

Feedback or suggestion? Click here.




ElementValue
Catalog49499
NameISS (PRICHAL)
Epoch Orbit31515
Epoch Day339.54240402
Epoch Year2021
RAAN215.4425
Inclination51.6431
Eccentricity0.0004165
Argument of Perigee274.2056
Mean Anonmoly156.7338
Mean Motion15.4894024
Decay Rate8.767E-05
L11 49499U 21111A 21339.54240402 .00008767 00000+0 16744-3 0 9992
L22 49499 51.6431 215.4425 0004165 274.2056 156.7338 15.48940240315157

Live tracking and technical data element details for ISS (PRICHAL) (NORAD 49499). ISS (PRICHAL) can be tracked NOW for your location showing map with azimuth and elevation plus other details from your city location.

Track the satellite on the map from your city or location and see movement details for azimuth, elevation, latitude, longitude, range, height, and movement on the map or in text.







IsCatalogInMostPopularTable: catalog: 49499, numindb: 13
Update: records affected: 1



GetName: 49499 ISS (PRICHAL)

Hit Count: updated at: Wed, 08 Dec 2021 16:11:46 GMT